Location: Wangen/Allg�u
(47.6873°N, 9.8307°E)
Time: 10:47:51
(UTC+01:00)

ISS - Pass Details

Date: 30 November 2021
Orbit: 413 x 422 km, 51.6° (Epoch: 23 January)

Event Time Altitude Azimuth Distance (km) Brightness Sun altitude
Rises 17:46:47 0° 283° (WNW) 2,384 1.2 -12.3°
Reaches altitude 10° 17:48:58 10° 290° (WNW) 1,517 -0.1 -12.6°
Maximum altitude 17:52:13 41° 2° (N) 634 -3.0 -13.1°
Enters shadow 17:53:47 24° 58° (ENE) 917 -2.6 -13.4°
